Hauptseite
METAR-TAF:

METAR-TAF

Flughäfen :

Nancy, Frankreich

Breite: 48-41N, Länge: 006-13E, Höhe: 225 m

Beobachtung

Neuester Wetterbericht von vor 20 Minuten, um 14:30 UTC
Wind 11 kt aus Süd/Südwest
Temperatur 12°C
Luftfeuchtigkeit 82%
Luftdruck 1013 hPa
Sichtweite 10 km oder mehr
Durchbrochene Bewölkung in der Höhe von 2300 ft
Durchbrochene Bewölkung in der Höhe von 2800 ft
Geschlossene Wolkendecke in der Höhe von 4400 ft

METAR: LFSN 241430Z AUTO 20011KT 9999 BKN023 BKN028 OVC044 12/09 Q1013

Zeit: 15:50 (14:50 UTC)


TAF: fehlend

Wetterbeobachtungen und Prognosen von mehr als 4000 Flughäfen (METAR und TAF Bericht).

Die verfügbaren Stationen werden durch gelbe und rote Markierungen auf der Karte dargestellt.

Führen Sie die Maus auf sie, um den Namen der Station zu sehen.

Darauf klicken, um die Beobachtung von Wetterbeobachtungen und Prognosen zu sehen.

Um die Karte zu ändern : klicken Sie auf den grünen Tasten mit einem schwarzen Kreuz Zum Vergrößern, auf den grünen Button mit einem Gedankenstrich zu verkleinern, oder auf die grünen Pfeile für benachbarte Karten.


METAR-TAF: